Terug naar catalogus

STARLINK-35349

ActiefCommunicatieVLEO
NORAD 65835·PAYLOAD·🇺🇸 United States

Gelanceerd Sep 29, 2025 vanaf Vandenberg Space Force Base

Loading…

Volgende Passages (komende 24 uur)

TLE

VersSource: CelesTrak SupGP

Epoch: Sep 14, 2026, 15:10 UTC

1 65835C 25221N   26257.63243056  .00012111  00000+0  35800-3 0  2571
2 65835  53.1574 288.9427 0001187  75.6271  30.5538 15.34368380    15

Volg STARLINK-35349 in realtime met AllMySat

Download on the App Store